Year,Month,Day,Hour,Minute,Value (Times are PST for windgust in km/hr)
2015,07,25,00,00,8.10
2015,07,25,00,01,9.60
2015,07,25,00,02,12.90
2015,07,25,00,03,11.30
2015,07,25,00,04,8.10
2015,07,25,00,05,14.50
2015,07,25,00,06,14.50
2015,07,25,00,07,12.90
2015,07,25,00,08,9.60
2015,07,25,00,09,11.30
2015,07,25,00,10,8.10
2015,07,25,00,11,6.40
2015,07,25,00,12,6.40
2015,07,25,00,13,6.40
2015,07,25,00,14,12.90
2015,07,25,00,15,6.40
2015,07,25,00,16,8.10
2015,07,25,00,17,9.60
2015,07,25,00,18,8.10
2015,07,25,00,19,8.10
2015,07,25,00,20,8.10
2015,07,25,00,21,8.10
2015,07,25,00,22,6.40
2015,07,25,00,23,11.30
2015,07,25,00,24,11.30
2015,07,25,00,25,9.60
2015,07,25,00,26,8.10
2015,07,25,00,27,8.10
2015,07,25,00,28,11.30
2015,07,25,00,29,8.10
2015,07,25,00,30,6.40
2015,07,25,00,31,6.40
2015,07,25,00,32,9.60
2015,07,25,00,33,9.60
2015,07,25,00,34,12.90
2015,07,25,00,35,9.60
2015,07,25,00,36,9.60
2015,07,25,00,37,9.60
2015,07,25,00,38,11.30
2015,07,25,00,39,6.40
2015,07,25,00,40,11.30
2015,07,25,00,41,9.60
2015,07,25,00,42,6.40
2015,07,25,00,43,8.10
2015,07,25,00,44,6.40
2015,07,25,00,45,8.10
2015,07,25,00,46,11.30
2015,07,25,00,47,8.10
2015,07,25,00,48,8.10
2015,07,25,00,49,6.40
2015,07,25,00,50,4.80
2015,07,25,00,51,6.40
2015,07,25,00,52,8.10
2015,07,25,00,53,6.40
2015,07,25,00,54,4.80
2015,07,25,00,55,6.40
2015,07,25,00,56,4.80
2015,07,25,00,57,6.40
2015,07,25,00,58,8.10
2015,07,25,00,59,6.40
2015,07,25,01,00,4.80
2015,07,25,01,01,4.80
2015,07,25,01,02,4.80
2015,07,25,01,03,6.40
2015,07,25,01,04,6.40
2015,07,25,01,05,8.10
2015,07,25,01,06,4.80
2015,07,25,01,07,3.20
2015,07,25,01,08,4.80
2015,07,25,01,09,4.80
2015,07,25,01,10,4.80
2015,07,25,01,11,4.80
2015,07,25,01,12,4.80
2015,07,25,01,13,4.80
2015,07,25,01,14,4.80
2015,07,25,01,15,6.40
2015,07,25,01,16,4.80
2015,07,25,01,17,4.80
2015,07,25,01,18,6.40
2015,07,25,01,19,6.40
2015,07,25,01,20,4.80
2015,07,25,01,21,4.80
2015,07,25,01,22,6.40
2015,07,25,01,23,4.80
2015,07,25,01,24,6.40
2015,07,25,01,25,4.80
2015,07,25,01,26,4.80
2015,07,25,01,27,4.80
2015,07,25,01,28,4.80
2015,07,25,01,29,4.80
2015,07,25,01,30,3.20
2015,07,25,01,31,3.20
2015,07,25,01,32,3.20
2015,07,25,01,33,4.80
2015,07,25,01,34,3.20
2015,07,25,01,35,4.80
2015,07,25,01,36,3.20
2015,07,25,01,37,3.20
2015,07,25,01,38,1.60
2015,07,25,01,44,4.80
2015,07,25,01,45,4.80
2015,07,25,01,46,4.80
2015,07,25,01,47,4.80
2015,07,25,01,48,6.40
2015,07,25,01,49,6.40
2015,07,25,01,50,4.80
2015,07,25,01,51,6.40
2015,07,25,01,52,4.80
2015,07,25,01,53,4.80
2015,07,25,01,54,4.80
2015,07,25,01,55,3.20
2015,07,25,01,56,3.20
2015,07,25,01,57,3.20
2015,07,25,01,58,4.80
2015,07,25,01,59,3.20
2015,07,25,02,00,3.20
2015,07,25,02,01,4.80
2015,07,25,02,02,3.20
2015,07,25,02,03,6.40
2015,07,25,02,04,6.40
2015,07,25,02,05,6.40
2015,07,25,02,06,6.40
2015,07,25,02,07,4.80
2015,07,25,02,08,6.40
2015,07,25,02,09,6.40
2015,07,25,02,10,6.40
2015,07,25,02,11,4.80
2015,07,25,02,12,6.40
2015,07,25,02,13,6.40
2015,07,25,02,14,6.40
2015,07,25,02,15,6.40
2015,07,25,02,16,6.40
2015,07,25,02,17,6.40
2015,07,25,02,18,4.80
2015,07,25,02,19,9.60
2015,07,25,02,20,4.80
2015,07,25,02,21,6.40
2015,07,25,02,22,6.40
2015,07,25,02,23,6.40
2015,07,25,02,24,6.40
2015,07,25,02,25,6.40
2015,07,25,02,26,8.10
2015,07,25,02,27,6.40
2015,07,25,02,28,6.40
2015,07,25,02,29,6.40
2015,07,25,02,30,9.60
2015,07,25,02,31,8.10
2015,07,25,02,32,6.40
2015,07,25,02,33,6.40
2015,07,25,02,34,8.10
2015,07,25,02,35,8.10
2015,07,25,02,36,6.40
2015,07,25,02,37,6.40
2015,07,25,02,38,8.10
2015,07,25,02,39,4.80
2015,07,25,02,40,8.10
2015,07,25,02,41,6.40
2015,07,25,02,42,6.40
2015,07,25,02,43,8.10
2015,07,25,02,44,6.40
2015,07,25,02,45,6.40
2015,07,25,02,46,6.40
2015,07,25,02,47,6.40
2015,07,25,02,48,6.40
2015,07,25,02,49,4.80
2015,07,25,02,50,6.40
2015,07,25,02,51,6.40
2015,07,25,02,52,8.10
2015,07,25,02,53,8.10
2015,07,25,02,54,6.40
2015,07,25,02,55,4.80
2015,07,25,02,56,8.10
2015,07,25,02,57,6.40
2015,07,25,02,58,9.60
2015,07,25,02,59,9.60
2015,07,25,03,00,6.40
2015,07,25,03,01,9.60
2015,07,25,03,02,6.40
2015,07,25,03,03,4.80
2015,07,25,03,04,6.40
2015,07,25,03,05,4.80
2015,07,25,03,06,4.80
2015,07,25,03,07,6.40
2015,07,25,03,08,4.80
2015,07,25,03,09,4.80
2015,07,25,03,10,3.20
2015,07,25,03,11,3.20
2015,07,25,03,12,4.80
2015,07,25,03,13,4.80
2015,07,25,03,14,4.80
2015,07,25,03,15,4.80
2015,07,25,03,16,3.20
2015,07,25,03,17,4.80
2015,07,25,03,18,4.80
2015,07,25,03,19,1.60
2015,07,25,03,20,3.20
2015,07,25,03,21,3.20
2015,07,25,03,22,3.20
2015,07,25,03,23,3.20
2015,07,25,03,24,4.80
2015,07,25,03,25,4.80
2015,07,25,03,26,3.20
2015,07,25,03,27,4.80
2015,07,25,03,28,4.80
2015,07,25,03,29,4.80
2015,07,25,03,30,4.80
2015,07,25,03,31,4.80
2015,07,25,03,32,4.80
2015,07,25,03,33,4.80
2015,07,25,03,34,4.80
2015,07,25,03,35,4.80
2015,07,25,03,36,3.20
2015,07,25,03,37,3.20
2015,07,25,03,38,3.20
2015,07,25,03,39,3.20
2015,07,25,03,40,4.80
2015,07,25,03,41,4.80
2015,07,25,03,42,4.80
2015,07,25,03,43,4.80
2015,07,25,03,44,3.20
2015,07,25,03,45,3.20
2015,07,25,03,46,3.20
2015,07,25,03,47,3.20
2015,07,25,03,48,3.20
2015,07,25,03,49,3.20
2015,07,25,03,50,3.20
2015,07,25,03,51,3.20
2015,07,25,03,52,3.20
2015,07,25,03,53,4.80
2015,07,25,03,54,3.20
2015,07,25,03,55,4.80
2015,07,25,03,56,4.80
2015,07,25,03,57,4.80
2015,07,25,03,58,3.20
2015,07,25,03,59,3.20
2015,07,25,04,00,3.20
2015,07,25,04,01,1.60
2015,07,25,04,21,4.80
2015,07,25,04,22,4.80
2015,07,25,04,23,3.20
2015,07,25,04,24,1.60
2015,07,25,04,25,1.60
2015,07,25,04,26,1.60
2015,07,25,04,30,3.20
2015,07,25,04,31,3.20
2015,07,25,04,32,4.80
2015,07,25,04,33,3.20
2015,07,25,04,34,3.20
2015,07,25,04,35,4.80
2015,07,25,04,36,4.80
2015,07,25,04,37,4.80
2015,07,25,04,38,4.80
2015,07,25,04,39,3.20
2015,07,25,04,40,3.20
2015,07,25,04,41,3.20
2015,07,25,04,42,3.20
2015,07,25,04,43,3.20
2015,07,25,04,44,3.20
2015,07,25,04,45,3.20
2015,07,25,04,46,3.20
2015,07,25,04,47,3.20
2015,07,25,04,48,3.20
2015,07,25,04,49,3.20
2015,07,25,04,50,3.20
2015,07,25,04,51,3.20
2015,07,25,04,52,1.60
2015,07,25,04,53,3.20
2015,07,25,04,54,3.20
2015,07,25,04,55,3.20
2015,07,25,04,56,3.20
2015,07,25,04,57,4.80
2015,07,25,04,58,4.80
2015,07,25,04,59,4.80
2015,07,25,05,00,3.20
2015,07,25,05,01,3.20
2015,07,25,05,06,3.20
2015,07,25,05,07,3.20
2015,07,25,05,08,4.80
2015,07,25,05,09,4.80
2015,07,25,05,10,3.20
2015,07,25,05,15,6.40
2015,07,25,05,16,6.40
2015,07,25,05,17,6.40
2015,07,25,05,18,4.80
2015,07,25,05,19,4.80
2015,07,25,05,20,4.80
2015,07,25,05,21,3.20
2015,07,25,05,22,3.20
2015,07,25,05,23,3.20
2015,07,25,05,24,3.20
2015,07,25,05,25,3.20
2015,07,25,05,26,1.60
2015,07,25,05,27,1.60
2015,07,25,05,28,1.60
2015,07,25,05,29,1.60
2015,07,25,05,30,1.60
2015,07,25,05,37,3.20
2015,07,25,05,38,4.80
2015,07,25,05,39,4.80
2015,07,25,05,40,3.20
2015,07,25,05,41,3.20
2015,07,25,05,42,3.20
2015,07,25,05,43,3.20
2015,07,25,05,44,3.20
2015,07,25,05,45,3.20
2015,07,25,05,46,3.20
2015,07,25,06,04,3.20
2015,07,25,06,05,4.80
2015,07,25,06,06,4.80
2015,07,25,06,07,4.80
2015,07,25,06,08,3.20
2015,07,25,06,09,1.60
2015,07,25,07,00,4.80
2015,07,25,07,01,4.80
2015,07,25,07,02,3.20
2015,07,25,07,03,4.80
2015,07,25,07,04,4.80
2015,07,25,07,05,4.80
2015,07,25,07,06,3.20
2015,07,25,07,07,3.20
2015,07,25,07,08,4.80
2015,07,25,07,09,3.20
2015,07,25,07,10,4.80
2015,07,25,07,11,4.80
2015,07,25,07,12,4.80
2015,07,25,07,13,4.80
2015,07,25,07,14,3.20
2015,07,25,07,15,3.20
2015,07,25,07,16,4.80
2015,07,25,07,17,6.40
2015,07,25,07,18,6.40
2015,07,25,07,19,8.10
2015,07,25,07,20,6.40
2015,07,25,07,21,6.40
2015,07,25,07,22,4.80
2015,07,25,07,23,8.10
2015,07,25,07,24,4.80
2015,07,25,07,25,6.40
2015,07,25,07,26,4.80
2015,07,25,07,27,6.40
2015,07,25,07,28,6.40
2015,07,25,07,29,8.10
2015,07,25,07,30,8.10
2015,07,25,07,31,8.10
2015,07,25,07,32,8.10
2015,07,25,07,33,8.10
2015,07,25,07,34,4.80
2015,07,25,07,35,4.80
2015,07,25,07,36,8.10
2015,07,25,07,37,8.10
2015,07,25,07,38,8.10
2015,07,25,07,39,8.10
2015,07,25,07,40,9.60
2015,07,25,07,41,8.10
2015,07,25,07,42,8.10
2015,07,25,07,43,6.40
2015,07,25,07,44,4.80
2015,07,25,07,45,4.80
2015,07,25,07,46,4.80
2015,07,25,07,47,6.40
2015,07,25,07,48,3.20
2015,07,25,07,49,6.40
2015,07,25,07,50,6.40
2015,07,25,07,51,3.20
2015,07,25,07,52,3.20
2015,07,25,07,53,6.40
2015,07,25,07,54,6.40
2015,07,25,07,55,4.80
2015,07,25,07,56,4.80
2015,07,25,07,57,4.80
2015,07,25,07,58,6.40
2015,07,25,07,59,6.40
2015,07,25,08,00,6.40
2015,07,25,08,01,6.40
2015,07,25,08,02,6.40
2015,07,25,08,03,4.80
2015,07,25,08,04,4.80
2015,07,25,08,05,6.40
2015,07,25,08,06,6.40
2015,07,25,08,07,4.80
2015,07,25,08,08,6.40
2015,07,25,08,09,6.40
2015,07,25,08,10,6.40
2015,07,25,08,11,6.40
2015,07,25,08,12,4.80
2015,07,25,08,13,4.80
2015,07,25,08,14,6.40
2015,07,25,08,15,4.80
2015,07,25,08,16,6.40
2015,07,25,08,17,6.40
2015,07,25,08,18,6.40
2015,07,25,08,19,4.80
2015,07,25,08,20,4.80
2015,07,25,08,21,4.80
2015,07,25,08,22,6.40
2015,07,25,08,23,6.40
2015,07,25,08,24,6.40
2015,07,25,08,25,4.80
2015,07,25,08,26,6.40
2015,07,25,08,27,6.40
2015,07,25,08,28,4.80
2015,07,25,08,29,6.40
2015,07,25,08,30,6.40
2015,07,25,08,31,4.80
2015,07,25,08,32,4.80
2015,07,25,08,33,6.40
2015,07,25,08,34,6.40
2015,07,25,08,35,6.40
2015,07,25,08,36,6.40
2015,07,25,08,37,6.40
2015,07,25,08,38,8.10
2015,07,25,08,39,6.40
2015,07,25,08,40,6.40
2015,07,25,08,41,6.40
2015,07,25,08,42,6.40
2015,07,25,08,43,4.80
2015,07,25,08,44,4.80
2015,07,25,08,45,4.80
2015,07,25,08,46,3.20
2015,07,25,08,47,3.20
2015,07,25,08,51,1.60
2015,07,25,08,52,3.20
2015,07,25,08,53,4.80
2015,07,25,08,54,4.80
2015,07,25,08,55,4.80
2015,07,25,08,56,4.80
2015,07,25,08,57,4.80
2015,07,25,08,58,4.80
2015,07,25,08,59,3.20
2015,07,25,09,00,3.20
2015,07,25,09,01,4.80
2015,07,25,09,02,6.40
2015,07,25,09,03,4.80
2015,07,25,09,04,4.80
2015,07,25,09,05,6.40
2015,07,25,09,06,1.60
2015,07,25,09,07,6.40
2015,07,25,09,08,6.40
2015,07,25,09,09,6.40
2015,07,25,09,10,4.80
2015,07,25,09,11,4.80
2015,07,25,09,12,4.80
2015,07,25,09,13,6.40
2015,07,25,09,14,6.40
2015,07,25,09,15,6.40
2015,07,25,09,16,4.80
2015,07,25,09,17,6.40
2015,07,25,09,18,6.40
2015,07,25,09,19,8.10
2015,07,25,09,20,8.10
2015,07,25,09,21,8.10
2015,07,25,09,22,11.30
2015,07,25,09,23,9.60
2015,07,25,09,24,11.30
2015,07,25,09,25,8.10
2015,07,25,09,26,8.10
2015,07,25,09,27,11.30
2015,07,25,09,28,8.10
2015,07,25,09,29,8.10
2015,07,25,09,30,8.10
2015,07,25,09,31,11.30
2015,07,25,09,32,8.10
2015,07,25,09,33,8.10
2015,07,25,09,34,6.40
2015,07,25,09,35,8.10
2015,07,25,09,36,6.40
2015,07,25,09,37,6.40
2015,07,25,09,38,11.30
2015,07,25,09,39,11.30
2015,07,25,09,40,8.10
2015,07,25,09,41,6.40
2015,07,25,09,42,4.80
2015,07,25,09,43,6.40
2015,07,25,09,44,6.40
2015,07,25,09,45,8.10
2015,07,25,09,46,8.10
2015,07,25,09,47,4.80
2015,07,25,09,48,6.40
2015,07,25,09,49,14.50
2015,07,25,09,50,6.40
2015,07,25,09,51,12.90
2015,07,25,09,52,12.90
2015,07,25,09,53,11.30
2015,07,25,09,54,11.30
2015,07,25,09,55,9.60
2015,07,25,09,56,6.40
2015,07,25,09,57,11.30
2015,07,25,09,58,8.10
2015,07,25,09,59,9.60
2015,07,25,10,00,11.30
2015,07,25,10,01,12.90
2015,07,25,10,02,11.30
2015,07,25,10,03,8.10
2015,07,25,10,04,9.60
2015,07,25,10,05,11.30
2015,07,25,10,06,12.90
2015,07,25,10,07,11.30
2015,07,25,10,08,11.30
2015,07,25,10,09,12.90
2015,07,25,10,10,11.30
2015,07,25,10,11,9.60
2015,07,25,10,12,11.30
2015,07,25,10,13,12.90
2015,07,25,10,14,9.60
2015,07,25,10,15,11.30
2015,07,25,10,16,11.30
2015,07,25,10,17,11.30
2015,07,25,10,18,8.10
2015,07,25,10,19,9.60
2015,07,25,10,20,9.60
2015,07,25,10,21,12.90
2015,07,25,10,22,12.90
2015,07,25,10,23,12.90
2015,07,25,10,24,12.90
2015,07,25,10,25,12.90
2015,07,25,10,26,11.30
2015,07,25,10,27,11.30
2015,07,25,10,28,11.30
2015,07,25,10,29,12.90
2015,07,25,10,30,11.30
2015,07,25,10,31,9.60
2015,07,25,10,32,12.90
2015,07,25,10,33,14.50
2015,07,25,10,34,12.90
2015,07,25,10,35,16.10
2015,07,25,10,36,12.90
2015,07,25,10,37,12.90
2015,07,25,10,38,11.30
2015,07,25,10,39,12.90
2015,07,25,10,40,14.50
2015,07,25,10,41,12.90
2015,07,25,10,42,12.90
2015,07,25,10,43,12.90
2015,07,25,10,44,14.50
2015,07,25,10,45,14.50
2015,07,25,10,46,12.90
2015,07,25,10,47,11.30
2015,07,25,10,48,12.90
2015,07,25,10,49,12.90
2015,07,25,10,50,14.50
2015,07,25,10,51,11.30
2015,07,25,10,52,14.50
2015,07,25,10,53,16.10
2015,07,25,10,54,16.10
2015,07,25,10,55,17.70
2015,07,25,10,56,12.90
2015,07,25,10,57,16.10
2015,07,25,10,58,14.50
2015,07,25,10,59,11.30
2015,07,25,11,00,12.90
2015,07,25,11,01,9.60
2015,07,25,11,02,12.90
2015,07,25,11,03,11.30
2015,07,25,11,04,12.90
2015,07,25,11,05,12.90
2015,07,25,11,06,11.30
2015,07,25,11,07,19.30
2015,07,25,11,08,16.10
2015,07,25,11,09,16.10
2015,07,25,11,10,17.70
2015,07,25,11,11,19.30
2015,07,25,11,12,17.70
2015,07,25,11,13,17.70
2015,07,25,11,14,19.30
2015,07,25,11,15,16.10
2015,07,25,11,16,14.50
2015,07,25,11,17,17.70
2015,07,25,11,18,17.70
2015,07,25,11,19,17.70
2015,07,25,11,20,19.30
2015,07,25,11,21,16.10
2015,07,25,11,22,19.30
2015,07,25,11,23,20.90
2015,07,25,11,24,17.70
2015,07,25,11,25,12.90
2015,07,25,11,26,16.10
2015,07,25,11,27,19.30
2015,07,25,11,28,11.30
2015,07,25,11,29,16.10
2015,07,25,11,30,14.50
2015,07,25,11,31,12.90
2015,07,25,11,32,17.70
2015,07,25,11,33,20.90
2015,07,25,11,34,16.10
2015,07,25,11,35,22.50
2015,07,25,11,36,17.70
2015,07,25,11,37,22.50
2015,07,25,11,38,20.90
2015,07,25,11,39,20.90
2015,07,25,11,40,22.50
2015,07,25,11,41,17.70
2015,07,25,11,42,20.90
2015,07,25,11,43,17.70
2015,07,25,11,44,19.30
2015,07,25,11,45,24.20
2015,07,25,11,46,22.50
2015,07,25,11,47,20.90
2015,07,25,11,48,20.90
2015,07,25,11,49,20.90
2015,07,25,11,50,20.90
2015,07,25,11,51,17.70
2015,07,25,11,52,19.30
2015,07,25,11,53,16.10
2015,07,25,11,54,12.90
2015,07,25,11,55,20.90
2015,07,25,11,56,19.30
2015,07,25,11,57,22.50
2015,07,25,11,58,20.90
2015,07,25,11,59,24.20
2015,07,25,12,00,22.50
2015,07,25,12,01,20.90
2015,07,25,12,02,20.90
2015,07,25,12,03,24.20
2015,07,25,12,04,19.30
2015,07,25,12,05,22.50
2015,07,25,12,06,17.70
2015,07,25,12,07,22.50
2015,07,25,12,08,22.50
2015,07,25,12,09,19.30
2015,07,25,12,10,19.30
2015,07,25,12,11,17.70
2015,07,25,12,12,24.20
2015,07,25,12,13,20.90
2015,07,25,12,14,19.30
2015,07,25,12,15,12.90
2015,07,25,12,16,14.50
2015,07,25,12,17,11.30
2015,07,25,12,18,16.10
2015,07,25,12,19,16.10
2015,07,25,12,20,16.10
2015,07,25,12,21,14.50
2015,07,25,12,22,16.10
2015,07,25,12,23,12.90
2015,07,25,12,24,14.50
2015,07,25,12,25,16.10
2015,07,25,12,26,11.30
2015,07,25,12,27,11.30
2015,07,25,12,28,12.90
2015,07,25,12,29,14.50
2015,07,25,12,30,12.90
2015,07,25,12,31,19.30
2015,07,25,12,32,16.10
2015,07,25,12,33,16.10
2015,07,25,12,34,19.30
2015,07,25,12,35,17.70
2015,07,25,12,36,19.30
2015,07,25,12,37,20.90
2015,07,25,12,38,19.30
2015,07,25,12,39,17.70
2015,07,25,12,40,16.10
2015,07,25,12,41,19.30
2015,07,25,12,42,17.70
2015,07,25,12,43,19.30
2015,07,25,12,44,19.30
2015,07,25,12,45,20.90
2015,07,25,12,46,20.90
2015,07,25,12,47,14.50
2015,07,25,12,48,16.10
2015,07,25,12,49,22.50
2015,07,25,12,50,20.90
2015,07,25,12,51,16.10
2015,07,25,12,52,20.90
2015,07,25,12,53,20.90
2015,07,25,12,54,20.90
2015,07,25,12,55,20.90
2015,07,25,12,56,22.50
2015,07,25,12,57,19.30
2015,07,25,12,58,20.90
2015,07,25,12,59,22.50
2015,07,25,13,00,17.70
2015,07,25,13,01,19.30
2015,07,25,13,02,14.50
2015,07,25,13,03,19.30
2015,07,25,13,04,19.30
2015,07,25,13,05,20.90
2015,07,25,13,06,20.90
2015,07,25,13,07,16.10
2015,07,25,13,08,19.30
2015,07,25,13,09,14.50
2015,07,25,13,10,14.50
2015,07,25,13,11,14.50
2015,07,25,13,12,11.30
2015,07,25,13,13,20.90
2015,07,25,13,14,16.10
2015,07,25,13,15,17.70
2015,07,25,13,16,19.30
2015,07,25,13,17,14.50
2015,07,25,13,18,14.50
2015,07,25,13,19,16.10
2015,07,25,13,20,19.30
2015,07,25,13,21,14.50
2015,07,25,13,22,17.70
2015,07,25,13,23,16.10
2015,07,25,13,24,16.10
2015,07,25,13,25,22.50
2015,07,25,13,26,16.10
2015,07,25,13,27,12.90
2015,07,25,13,28,17.70
2015,07,25,13,29,14.50
2015,07,25,13,30,16.10
2015,07,25,13,31,17.70
2015,07,25,13,32,4.80
2015,07,25,13,33,4.80
2015,07,25,13,34,4.80
2015,07,25,13,35,4.80
2015,07,25,13,36,19.30
2015,07,25,13,37,16.10
2015,07,25,13,38,17.70
2015,07,25,13,39,20.90
2015,07,25,13,40,17.70
2015,07,25,13,41,17.70
2015,07,25,13,42,16.10
2015,07,25,13,43,19.30
2015,07,25,13,44,16.10
2015,07,25,13,45,16.10
2015,07,25,13,46,16.10
2015,07,25,13,47,16.10
2015,07,25,13,48,16.10
2015,07,25,13,49,17.70
2015,07,25,13,50,17.70
2015,07,25,13,51,16.10
2015,07,25,13,52,19.30
2015,07,25,13,53,19.30
2015,07,25,13,54,20.90
2015,07,25,13,55,20.90
2015,07,25,13,56,17.70
2015,07,25,13,57,14.50
2015,07,25,13,58,19.30
2015,07,25,13,59,19.30
2015,07,25,14,00,17.70
2015,07,25,14,01,16.10
2015,07,25,14,02,17.70
2015,07,25,14,03,17.70
2015,07,25,14,04,16.10
2015,07,25,14,05,12.90
2015,07,25,14,06,20.90
2015,07,25,14,07,20.90
2015,07,25,14,08,17.70
2015,07,25,14,09,14.50
2015,07,25,14,10,16.10
2015,07,25,14,11,14.50
2015,07,25,14,12,14.50
2015,07,25,14,13,16.10
2015,07,25,14,14,19.30
2015,07,25,14,15,19.30
2015,07,25,14,16,12.90
2015,07,25,14,17,11.30
2015,07,25,14,18,12.90
2015,07,25,14,19,12.90
2015,07,25,14,20,17.70
2015,07,25,14,21,14.50
2015,07,25,14,22,14.50
2015,07,25,14,23,14.50
2015,07,25,14,24,14.50
2015,07,25,14,25,11.30
2015,07,25,14,26,12.90
2015,07,25,14,27,12.90
2015,07,25,14,28,14.50
2015,07,25,14,29,17.70
2015,07,25,14,30,16.10
2015,07,25,14,31,16.10
2015,07,25,14,32,17.70
2015,07,25,14,33,17.70
2015,07,25,14,34,19.30
2015,07,25,14,35,19.30
2015,07,25,14,36,16.10
2015,07,25,14,37,19.30
2015,07,25,14,38,17.70
2015,07,25,14,39,17.70
2015,07,25,14,40,12.90
2015,07,25,14,41,16.10
2015,07,25,14,42,12.90
2015,07,25,14,43,12.90
2015,07,25,14,44,16.10
2015,07,25,14,45,17.70
2015,07,25,14,46,17.70
2015,07,25,14,47,12.90
2015,07,25,14,48,11.30
2015,07,25,14,49,12.90
2015,07,25,14,50,14.50
2015,07,25,14,51,12.90
2015,07,25,14,52,16.10
2015,07,25,14,53,12.90
2015,07,25,14,54,16.10
2015,07,25,14,55,14.50
2015,07,25,14,56,11.30
2015,07,25,14,57,12.90
2015,07,25,14,58,8.10
2015,07,25,14,59,14.50
2015,07,25,15,00,16.10
2015,07,25,15,01,16.10
2015,07,25,15,02,16.10
2015,07,25,15,03,16.10
2015,07,25,15,04,16.10
2015,07,25,15,05,11.30
2015,07,25,15,06,19.30
2015,07,25,15,07,14.50
2015,07,25,15,08,11.30
2015,07,25,15,09,17.70
2015,07,25,15,10,19.30
2015,07,25,15,11,17.70
2015,07,25,15,12,19.30
2015,07,25,15,13,17.70
2015,07,25,15,14,19.30
2015,07,25,15,15,17.70
2015,07,25,15,16,20.90
2015,07,25,15,17,19.30
2015,07,25,15,18,19.30
2015,07,25,15,19,17.70
2015,07,25,15,20,17.70
2015,07,25,15,21,17.70
2015,07,25,15,22,16.10
2015,07,25,15,23,16.10
2015,07,25,15,24,17.70
2015,07,25,15,25,19.30
2015,07,25,15,26,17.70
2015,07,25,15,27,17.70
2015,07,25,15,28,16.10
2015,07,25,15,29,16.10
2015,07,25,15,30,16.10
2015,07,25,15,31,16.10
2015,07,25,15,32,14.50
2015,07,25,15,33,12.90
2015,07,25,15,34,14.50
2015,07,25,15,35,12.90
2015,07,25,15,36,12.90
2015,07,25,15,37,11.30
2015,07,25,15,38,11.30
2015,07,25,15,39,8.10
2015,07,25,15,40,11.30
2015,07,25,15,41,12.90
2015,07,25,15,42,12.90
2015,07,25,15,43,12.90
2015,07,25,15,44,12.90
2015,07,25,15,45,11.30
2015,07,25,15,46,11.30
2015,07,25,15,47,11.30
2015,07,25,15,48,9.60
2015,07,25,15,49,9.60
2015,07,25,15,50,8.10
2015,07,25,15,51,8.10
2015,07,25,15,52,6.40
2015,07,25,15,53,4.80
2015,07,25,15,54,4.80
2015,07,25,15,55,6.40
2015,07,25,15,56,8.10
2015,07,25,15,57,8.10
2015,07,25,15,58,4.80
2015,07,25,15,59,4.80
2015,07,25,16,00,6.40
2015,07,25,16,01,4.80
2015,07,25,16,02,6.40
2015,07,25,16,03,6.40
2015,07,25,16,04,4.80
2015,07,25,16,05,4.80
2015,07,25,16,06,6.40
2015,07,25,16,07,8.10
2015,07,25,16,08,6.40
2015,07,25,16,09,6.40
2015,07,25,16,10,9.60
2015,07,25,16,11,11.30
2015,07,25,16,12,12.90
2015,07,25,16,13,12.90
2015,07,25,16,14,14.50
2015,07,25,16,15,11.30
2015,07,25,16,16,11.30
2015,07,25,16,17,12.90
2015,07,25,16,18,11.30
2015,07,25,16,19,11.30
2015,07,25,16,20,8.10
2015,07,25,16,21,8.10
2015,07,25,16,22,11.30
2015,07,25,16,23,11.30
2015,07,25,16,24,8.10
2015,07,25,16,25,6.40
2015,07,25,16,26,8.10
2015,07,25,16,27,8.10
2015,07,25,16,28,4.80
2015,07,25,16,29,4.80
2015,07,25,16,30,4.80
2015,07,25,16,31,3.20
2015,07,25,16,32,3.20
2015,07,25,16,33,3.20
2015,07,25,16,34,3.20
2015,07,25,16,35,4.80
2015,07,25,16,36,4.80
2015,07,25,16,37,6.40
2015,07,25,16,38,4.80
2015,07,25,16,39,3.20
2015,07,25,16,40,6.40
2015,07,25,16,41,4.80
2015,07,25,16,42,4.80
2015,07,25,16,43,4.80
2015,07,25,16,44,6.40
2015,07,25,16,45,4.80
2015,07,25,16,46,3.20
2015,07,25,16,47,4.80
2015,07,25,16,48,3.20
2015,07,25,16,49,4.80
2015,07,25,16,50,4.80
2015,07,25,16,51,6.40
2015,07,25,16,52,6.40
2015,07,25,16,53,4.80
2015,07,25,16,54,4.80
2015,07,25,16,55,6.40
2015,07,25,16,56,8.10
2015,07,25,16,57,8.10
2015,07,25,16,58,6.40
2015,07,25,16,59,4.80
2015,07,25,17,00,4.80
2015,07,25,17,01,4.80
2015,07,25,17,02,4.80
2015,07,25,17,03,6.40
2015,07,25,17,04,4.80
2015,07,25,17,05,4.80
2015,07,25,17,06,3.20
2015,07,25,17,07,3.20
2015,07,25,17,08,3.20
2015,07,25,17,09,4.80
2015,07,25,17,10,3.20
2015,07,25,17,11,1.60
2015,07,25,17,12,3.20
2015,07,25,17,13,3.20
2015,07,25,17,14,3.20
2015,07,25,17,15,1.60
2015,07,25,17,23,3.20
2015,07,25,17,24,4.80
2015,07,25,17,25,4.80
2015,07,25,17,26,4.80
2015,07,25,17,27,4.80
2015,07,25,17,28,1.60
2015,07,25,17,31,1.60
2015,07,25,17,33,6.40
2015,07,25,17,34,6.40
2015,07,25,17,35,4.80
2015,07,25,17,36,4.80
2015,07,25,17,37,4.80
2015,07,25,17,38,4.80
2015,07,25,17,39,6.40
2015,07,25,17,40,4.80
2015,07,25,17,41,4.80
2015,07,25,17,42,4.80
2015,07,25,17,43,4.80
2015,07,25,17,44,4.80
2015,07,25,17,45,4.80
2015,07,25,17,46,3.20
2015,07,25,17,47,4.80
2015,07,25,17,48,3.20
2015,07,25,17,52,1.60
2015,07,25,17,53,3.20
2015,07,25,17,54,3.20
2015,07,25,17,55,1.60
2015,07,25,17,56,3.20
2015,07,25,17,57,4.80
2015,07,25,17,58,4.80
2015,07,25,17,59,4.80
2015,07,25,18,00,4.80
2015,07,25,18,01,3.20
2015,07,25,18,02,4.80
2015,07,25,18,03,4.80
2015,07,25,18,04,3.20
2015,07,25,18,05,4.80
2015,07,25,18,06,4.80
2015,07,25,18,07,4.80
2015,07,25,18,08,4.80
2015,07,25,18,09,3.20
2015,07,25,18,10,4.80
2015,07,25,18,11,3.20
2015,07,25,18,12,4.80
2015,07,25,18,13,3.20
2015,07,25,18,14,4.80
2015,07,25,18,15,4.80
2015,07,25,18,16,4.80
2015,07,25,18,17,4.80
2015,07,25,18,18,4.80
2015,07,25,18,19,3.20
2015,07,25,18,20,4.80
2015,07,25,18,21,4.80
2015,07,25,18,22,3.20
2015,07,25,18,23,3.20
2015,07,25,18,24,4.80
2015,07,25,18,25,4.80
2015,07,25,18,26,4.80
2015,07,25,18,27,4.80
2015,07,25,18,28,8.10
2015,07,25,18,29,6.40
2015,07,25,18,30,4.80
2015,07,25,18,31,4.80
2015,07,25,18,32,3.20
2015,07,25,18,33,3.20
2015,07,25,18,34,3.20
2015,07,25,18,35,4.80
2015,07,25,18,36,6.40
2015,07,25,18,37,4.80
2015,07,25,18,38,3.20
2015,07,25,18,39,4.80
2015,07,25,18,40,3.20
2015,07,25,18,41,4.80
2015,07,25,18,42,4.80
2015,07,25,18,43,4.80
2015,07,25,18,44,4.80
2015,07,25,18,45,4.80
2015,07,25,18,46,4.80
2015,07,25,18,47,3.20
2015,07,25,18,48,3.20
2015,07,25,18,49,3.20
2015,07,25,18,50,1.60
2015,07,25,18,51,3.20
2015,07,25,18,52,3.20
2015,07,25,18,53,3.20
2015,07,25,18,54,1.60
2015,07,25,18,55,1.60
2015,07,25,19,01,3.20
2015,07,25,19,02,3.20
2015,07,25,19,03,3.20
2015,07,25,19,04,3.20
2015,07,25,19,05,4.80
2015,07,25,19,06,4.80
2015,07,25,19,07,4.80
2015,07,25,19,08,4.80
2015,07,25,19,09,4.80
2015,07,25,19,10,4.80
2015,07,25,19,11,6.40
2015,07,25,19,12,6.40
2015,07,25,19,13,6.40
2015,07,25,19,14,6.40
2015,07,25,19,15,3.20
2015,07,25,19,16,4.80
2015,07,25,19,17,8.10
2015,07,25,19,18,8.10
2015,07,25,19,19,8.10
2015,07,25,19,20,6.40
2015,07,25,19,21,6.40
2015,07,25,19,22,8.10
2015,07,25,19,23,6.40
2015,07,25,19,24,8.10
2015,07,25,19,25,8.10
2015,07,25,19,26,4.80
2015,07,25,19,27,8.10
2015,07,25,19,28,4.80
2015,07,25,19,29,3.20
2015,07,25,19,30,4.80
2015,07,25,19,31,6.40
2015,07,25,19,32,8.10
2015,07,25,19,33,9.60
2015,07,25,19,34,6.40
2015,07,25,19,35,8.10
2015,07,25,19,36,8.10
2015,07,25,19,37,8.10
2015,07,25,19,38,6.40
2015,07,25,19,39,6.40
2015,07,25,19,40,6.40
2015,07,25,19,41,6.40
2015,07,25,19,42,3.20
2015,07,25,19,43,4.80
2015,07,25,19,44,4.80
2015,07,25,19,45,6.40
2015,07,25,19,46,6.40
2015,07,25,19,47,6.40
2015,07,25,19,48,6.40
2015,07,25,19,49,4.80
2015,07,25,19,50,4.80
2015,07,25,19,51,3.20
2015,07,25,19,52,6.40
2015,07,25,19,53,4.80
2015,07,25,19,54,4.80
2015,07,25,19,55,6.40
2015,07,25,19,56,3.20
2015,07,25,19,57,4.80
2015,07,25,19,58,4.80